When you browse on this site, cookies collect data to enhance your experience and personalize the content and advertising you see.
Visit our Privacy Policy to learn more. By continuing to use the site, you agree to this use of cookies and data.
  • In Lithuania
  • List of Countries
  • For 7 days
  • Water Temperature
  • Weather Map
  • Weather Widgets
  • user-avatar
    Login

    Hourly Weather Smietki

    Today, 19 August, Monday

    Time Temperature Precipitation Wind Pressure Humidity
    00:00 +20°C° 0 mm 3 mps 745 mmHg 70%
    01:00 +20°C° 0 mm 3 mps 746 mmHg 72%
    02:00 +19°C° 0 mm 3 mps 746 mmHg 76%
    03:00 +19°C° 0 mm 3 mps 746 mmHg 80%
    04:00 +19°C° 0 mm 3 mps 746 mmHg 84%
    05:00 +20°C° 0 mm 3 mps 746 mmHg 80%
    06:00 +21°C° 0 mm 3 mps 747 mmHg 77%
    07:00 +24°C° 0 mm 3 mps 747 mmHg 74%
    08:00 +25°C° 0 mm 3 mps 747 mmHg 70%
    09:00 +26°C° 0 mm 4 mps 748 mmHg 65%
    10:00 +27°C° 0 mm 4 mps 748 mmHg 61%
    11:00 +28°C° 0.2 mm 4 mps 749 mmHg 59%
    12:00 +28°C° 0.2 mm 4 mps 749 mmHg 57%
    13:00 +28°C° 0.2 mm 3 mps 749 mmHg 55%
    14:00 +27°C° 0.2 mm 4 mps 749 mmHg 60%
    15:00 +25°C° 0.2 mm 4 mps 749 mmHg 65%
    16:00 +23°C° 0.2 mm 4 mps 750 mmHg 71%
    17:00 +22°C° 0.2 mm 3 mps 750 mmHg 78%
    18:00 +20°C° 0.2 mm 2 mps 750 mmHg 85%
    19:00 +19°C° 0.2 mm 2 mps 750 mmHg 91%
    20:00 +18°C° 0.2 mm 2 mps 751 mmHg 93%
    21:00 +18°C° 0.2 mm 2 mps 751 mmHg 95%
    22:00 +17°C° 0.2 mm 2 mps 751 mmHg 96%
    23:00 +17°C° 0 mm 2 mps 752 mmHg 96%

    Tomorrow, 20 August, Tuesday

    Time Temperature Precipitation Wind Pressure Humidity
    00:00 +16°C° 0 mm 2 mps 752 mmHg 96%
    01:00 +16°C° 0 mm 2 mps 752 mmHg 96%
    02:00 +16°C° 0 mm 2 mps 753 mmHg 96%
    03:00 +15°C° 0 mm 1 mps 753 mmHg 96%
    04:00 +15°C° 0 mm 1 mps 753 mmHg 96%
    05:00 +16°C° 0 mm 1 mps 753 mmHg 92%
    06:00 +18°C° 0 mm 1 mps 754 mmHg 89%
    07:00 +19°C° 0 mm 1 mps 754 mmHg 86%
    08:00 +21°C° 0 mm 1 mps 754 mmHg 76%
    09:00 +21°C° 0 mm 2 mps 754 mmHg 67%
    10:00 +24°C° 0 mm 2 mps 754 mmHg 58%
    11:00 +25°C° 0 mm 2 mps 755 mmHg 53%
    12:00 +25°C° 0 mm 2 mps 755 mmHg 48%
    13:00 +26°C° 0 mm 1 mps 755 mmHg 44%
    14:00 +26°C° 0 mm 2 mps 755 mmHg 44%
    15:00 +26°C° 0 mm 2 mps 755 mmHg 45%
    16:00 +26°C° 0 mm 2 mps 754 mmHg 45%
    17:00 +24°C° 0 mm 2 mps 754 mmHg 54%
    18:00 +20°C° 0 mm 2 mps 755 mmHg 62%
    19:00 +18°C° 0 mm 2 mps 755 mmHg 70%
    20:00 +18°C° 0 mm 2 mps 755 mmHg 72%
    21:00 +18°C° 0 mm 2 mps 755 mmHg 74%
    22:00 +17°C° 0 mm 2 mps 755 mmHg 76%
    23:00 +18°C° 0 mm 2 mps 755 mmHg 75%

    Day after tomorrow, 21 August, Wednesday

    Time Temperature Precipitation Wind Pressure Humidity
    00:00 +18°C° 0 mm 2 mps 755 mmHg 74%
    01:00 +18°C° 0 mm 2 mps 755 mmHg 73%
    02:00 +17°C° 0.7 mm 3 mps 755 mmHg 80%
    03:00 +17°C° 0.7 mm 3 mps 754 mmHg 86%
    04:00 +16°C° 0.7 mm 3 mps 754 mmHg 93%
    05:00 +15°C° 2.6 mm 4 mps 754 mmHg 93%
    06:00 +14°C° 2.6 mm 5 mps 754 mmHg 94%
    07:00 +14°C° 2.6 mm 5 mps 754 mmHg 95%
    08:00 +14°C° 1.7 mm 5 mps 755 mmHg 95%
    09:00 +14°C° 1.7 mm 4 mps 755 mmHg 95%
    10:00 +14°C° 1.7 mm 3 mps 755 mmHg 95%
    11:00 +14°C° 0.2 mm 3 mps 755 mmHg 93%
    12:00 +14°C° 0.2 mm 3 mps 756 mmHg 92%
    13:00 +14°C° 0.2 mm 3 mps 756 mmHg 91%
    14:00 +16°C° 0 mm 2 mps 756 mmHg 87%
    15:00 +17°C° 0 mm 2 mps 756 mmHg 82%
    16:00 +18°C° 0 mm 2 mps 756 mmHg 78%
    17:00 +18°C° 0 mm 1 mps 757 mmHg 82%
    18:00 +16°C° 0 mm 1 mps 757 mmHg 87%
    19:00 +15°C° 0 mm 1 mps 757 mmHg 91%
    20:00 +14°C° 0 mm 1 mps 757 mmHg 92%
    21:00 +14°C° 0 mm 1 mps 757 mmHg 94%
    22:00 +14°C° 0 mm 1 mps 758 mmHg 95%
    23:00 +13°C° 0 mm 2 mps 758 mmHg 95%

    22 August, Thursday

    Time Temperature Precipitation Wind Pressure Humidity
    00:00 +13°C° 0 mm 2 mps 758 mmHg 95%
    01:00 +12°C° 0 mm 2 mps 758 mmHg 96%
    02:00 +12°C° 0 mm 2 mps 758 mmHg 95%
    03:00 +12°C° 0 mm 1 mps 758 mmHg 95%
    04:00 +11°C° 0 mm 1 mps 757 mmHg 95%
    05:00 +13°C° 0 mm 1 mps 758 mmHg 91%
    06:00 +14°C° 0 mm 1 mps 758 mmHg 86%
    07:00 +15°C° 0 mm 1 mps 758 mmHg 82%
    08:00 +18°C° 0 mm 1 mps 758 mmHg 74%
    09:00 +19°C° 0 mm 1 mps 758 mmHg 65%
    10:00 +20°C° 0 mm 1 mps 758 mmHg 56%
    11:00 +21°C° 0 mm 1 mps 758 mmHg 53%
    12:00 +21°C° 0 mm 2 mps 758 mmHg 50%
    13:00 +21°C° 0 mm 2 mps 758 mmHg 47%
    14:00 +21°C° 0 mm 2 mps 758 mmHg 48%
    15:00 +21°C° 0 mm 2 mps 757 mmHg 48%
    16:00 +21°C° 0 mm 2 mps 757 mmHg 49%
    17:00 +19°C° 0 mm 2 mps 757 mmHg 56%
    18:00 +18°C° 0 mm 1 mps 757 mmHg 63%
    19:00 +15°C° 0 mm 1 mps 757 mmHg 70%
    20:00 +15°C° 0 mm 1 mps 757 mmHg 72%
    21:00 +14°C° 0 mm 1 mps 758 mmHg 73%
    22:00 +13°C° 0 mm 0 mps 758 mmHg 75%
    23:00 +12°C° 0 mm 0 mps 758 mmHg 77%

    23 August, Friday

    Time Temperature Precipitation Wind Pressure Humidity
    00:00 +12°C° 0 mm 0 mps 758 mmHg 79%
    01:00 +11°C° 0 mm 0 mps 758 mmHg 81%
    02:00 +11°C° 0 mm 0 mps 758 mmHg 82%
    03:00 +11°C° 0 mm 0 mps 758 mmHg 83%
    04:00 +11°C° 0 mm 0 mps 758 mmHg 83%
    05:00 +12°C° 0 mm 0 mps 758 mmHg 78%
    06:00 +14°C° 0 mm 0 mps 759 mmHg 72%
    07:00 +16°C° 0 mm 0 mps 759 mmHg 67%
    08:00 +18°C° 0 mm 0 mps 759 mmHg 62%
    09:00 +21°C° 0 mm 1 mps 759 mmHg 58%
    10:00 +23°C° 0 mm 1 mps 759 mmHg 53%
    11:00 +23°C° 0 mm 1 mps 759 mmHg 51%
    12:00 +24°C° 0 mm 1 mps 759 mmHg 49%
    13:00 +24°C° 0 mm 2 mps 759 mmHg 47%
    14:00 +24°C° 0 mm 2 mps 759 mmHg 47%
    15:00 +24°C° 0 mm 2 mps 758 mmHg 48%
    16:00 +24°C° 0 mm 2 mps 758 mmHg 48%
    17:00 +21°C° 0 mm 2 mps 758 mmHg 56%
    18:00 +19°C° 0 mm 2 mps 758 mmHg 63%
    19:00 +17°C° 0 mm 2 mps 758 mmHg 70%
    20:00 +16°C° 0 mm 2 mps 758 mmHg 73%
    21:00 +15°C° 0 mm 2 mps 758 mmHg 77%
    22:00 +14°C° 0 mm 2 mps 758 mmHg 80%
    23:00 +14°C° 0 mm 2 mps 758 mmHg 82%

    24 August, Saturday

    Time Temperature Precipitation Wind Pressure Humidity
    00:00 +13°C° 0 mm 2 mps 758 mmHg 84%
    01:00 +13°C° 0 mm 2 mps 759 mmHg 86%
    02:00 +13°C° 0 mm 2 mps 758 mmHg 88%
    03:00 +12°C° 0 mm 2 mps 758 mmHg 89%
    04:00 +12°C° 0 mm 2 mps 758 mmHg 91%
    05:00 +13°C° 0 mm 2 mps 758 mmHg 86%
    06:00 +14°C° 0 mm 3 mps 758 mmHg 80%
    07:00 +16°C° 0 mm 3 mps 758 mmHg 74%
    08:00 +18°C° 0 mm 3 mps 758 mmHg 67%
    09:00 +20°C° 0 mm 4 mps 757 mmHg 60%
    10:00 +22°C° 0 mm 4 mps 757 mmHg 54%
    11:00 +22°C° 0 mm 4 mps 757 mmHg 51%
    12:00 +23°C° 0 mm 5 mps 756 mmHg 48%
    13:00 +25°C° 0 mm 5 mps 756 mmHg 46%
    14:00 +25°C° 0 mm 5 mps 756 mmHg 48%
    15:00 +25°C° 0 mm 5 mps 755 mmHg 51%
    16:00 +23°C° 0 mm 5 mps 755 mmHg 54%
    17:00 +22°C° 0 mm 4 mps 755 mmHg 61%
    18:00 +20°C° 0 mm 4 mps 754 mmHg 68%
    19:00 +19°C° 0 mm 4 mps 754 mmHg 74%
    20:00 +18°C° 0 mm 4 mps 754 mmHg 74%
    21:00 +18°C° 0 mm 4 mps 754 mmHg 73%
    22:00 +17°C° 0 mm 4 mps 754 mmHg 72%
    23:00 +17°C° 0 mm 4 mps 754 mmHg 74%
    Show more